Sterling, IL

6:39 AM CST on November 19, 2019 (GMT -0600)
Whiteside County-Bittorf

Weather History for KSQI - October, 2019

Change the Weather History Date:

Monday, October 21, 2019

  Actual Average Record
Temperature  
Mean Temperature 58 °F -  
Max Temperature 66 °F 58 °F 82 °F (2007)
Min Temperature 51 °F 38 °F 21 °F (2018)
Degree Days  
Heating Degree Days 6    
Growing Degree Days 8 (Base 50)    
Moisture  
Dew Point 50 °F    
Average Humidity 77    
Maximum Humidity 100    
Minimum Humidity 46    
Precipitation  
Precipitation 0.00 in - - ()
Sea Level Pressure  
Sea Level Pressure 29.18 in    
Wind  
Wind Speed 10 mph ()    
Max Wind Speed 20 mph    
Max Gust Speed 29 mph    
Visibility 9.3 miles    
Events Rain    
Averages and records for this station are not official NWS values.
T = Trace of Precipitation, MM = Missing Value Source: Averaged Metar Reports

Daily Weather History Graph

Daily Weather History Graph

Search for Another Location

Airport or City:

Astronomy

Oct. 21, 2019 Rise Set
Actual Time 7:17 AM CDT 6:08 PM CDT
Civil Twilight 6:49 AM CDT 6:36 PM CDT
Nautical Twilight 6:16 AM CDT 7:09 PM CDT
Astronomical Twilight 5:44 AM CDT 7:41 PM CDT
Moon No Moon Rise 2:38 PM CDT (10/21)
Length of Visible Light 11h 47m
Length of Day
10h 50m
Waning Gibbous, 48% of the Moon is Illuminated
Oct 21
Waning Gibbous
Oct 27
New
Nov 4
First Quarter
Nov 12
Full
Nov 19
Last Quarter

Hourly Weather History & Observations

Time (CDT) Temp. Dew Point Humidity Pressure Visibility Wind Dir Wind Speed Gust Speed Precip Events Conditions
12:56 AM 51.1 °F 50.0 °F 96% 29.39 in 5.0 mi East 6.9 mph - N/A   Overcast
1:56 AM 53.1 °F 51.1 °F 93% 29.36 in 6.0 mi East 12.7 mph - N/A   Overcast
2:56 AM 54.0 °F 51.1 °F 90% 29.33 in 8.0 mi East 13.8 mph - N/A   Overcast
3:56 AM 55.0 °F 51.1 °F 86% 29.26 in 10.0 mi East 12.7 mph - N/A   Mostly Cloudy
4:56 AM 55.9 °F 51.1 °F 84% 29.23 in 10.0 mi ESE 12.7 mph - N/A   Overcast
5:56 AM 55.9 °F 51.1 °F 84% 29.17 in 10.0 mi ESE 12.7 mph 21.9 mph N/A   Mostly Cloudy
6:56 AM 57.0 °F 52.0 °F 83% 29.11 in 10.0 mi ESE 12.7 mph 18.4 mph N/A   Mostly Cloudy
7:46 AM - - N/A% - 2.5 mi North - - N/A Rain Rain
7:56 AM 55.9 °F 55.0 °F 97% 29.01 in 10.0 mi ESE 19.6 mph 28.8 mph N/A Rain Light Rain
8:22 AM 57.2 °F 55.4 °F 94% 29.41 in 10.0 mi ESE 16.1 mph 21.9 mph N/A   Overcast
8:56 AM 57.9 °F 57.0 °F 97% - 9.0 mi North - - N/A Rain Light Rain
9:49 AM 57.2 °F 57.2 °F 100% - 8.0 mi North - - N/A Rain Light Rain
9:56 AM - - N/A% - 10.0 mi North - - N/A Rain Light Rain
10:30 AM 60.8 °F 59.0 °F 94% 29.36 in 10.0 mi South 9.2 mph 18.4 mph N/A Rain Light Rain
10:56 AM 61.0 °F 59.0 °F 93% 28.98 in 10.0 mi South 8.1 mph 20.7 mph N/A   Overcast
11:18 AM 62.6 °F 59.0 °F 88% 29.36 in 10.0 mi SSW 9.2 mph - N/A   Overcast
11:56 AM 63.0 °F 57.0 °F 81% 28.98 in 10.0 mi WSW 12.7 mph 23.0 mph N/A   Overcast
12:07 PM 64.4 °F 57.2 °F 77% 29.37 in 10.0 mi SW 12.7 mph 26.5 mph N/A   Mostly Cloudy
12:56 PM 66.0 °F 54.0 °F 65% 28.98 in 10.0 mi SW 9.2 mph 19.6 mph N/A   Partly Cloudy
1:56 PM 64.0 °F 46.0 °F 52% 28.99 in 10.0 mi SW 8.1 mph 19.6 mph N/A   Mostly Cloudy
2:56 PM 64.0 °F 43.0 °F 46% 29.00 in 10.0 mi WSW 15.0 mph 24.2 mph N/A   Clear
3:56 PM 60.1 °F 42.1 °F 51% 29.05 in 10.0 mi WSW 13.8 mph 26.5 mph N/A   Mostly Cloudy
4:56 PM 57.0 °F 42.1 °F 57% 29.07 in 10.0 mi WSW 12.7 mph 23.0 mph N/A   Overcast
5:56 PM 54.0 °F 39.0 °F 57% 29.11 in 10.0 mi SW 13.8 mph 21.9 mph N/A   Overcast
6:56 PM 53.1 °F 41.0 °F 64% 29.13 in 10.0 mi Variable 6.9 mph - N/A   Overcast
7:56 PM 53.1 °F 41.0 °F 64% 29.14 in 10.0 mi Variable 5.8 mph - N/A   Overcast
8:56 PM 53.1 °F 41.0 °F 64% 29.12 in 10.0 mi SW 9.2 mph 18.4 mph N/A   Overcast
9:56 PM 52.0 °F 42.1 °F 69% 29.51 in 10.0 mi WSW 6.9 mph 17.3 mph N/A   Overcast
10:56 PM 51.1 °F 42.1 °F 71% 29.11 in 10.0 mi WSW 8.1 mph 16.1 mph N/A   Mostly Cloudy
11:56 PM 52.0 °F 42.1 °F 69% 29.08 in 10.0 mi SW 9.2 mph - N/A   Overcast